Theta_e
348 350 350 351 363 365 367 363 356 358 358 353 349 355 356 358 356 355 347 347 349 351 351 351 348 349 346 346 346 342 349 349 348 349 351 350 343 345 345 348 351 351 351 351 352 352 353 353 352
351 353 352 353 365 369 367 361 359 357 356 353 353 354 355 362 351 348 347 348 349 351 351 352 346 351 350 346 346 344 344 348 348 347 346 350 351 350 352 351 351 351 351 350 350 350 351 352 351
350 354 356 360 364 369 367 361 359 356 353 352 355 351 352 357 348 347 348 348 349 352 351 353 347 348 349 347 346 344 344 346 344 341 337 351 354 354 354 353 352 351 351 350 347 348 348 347 345
351 351 352 364 365 362 361 359 356 355 353 352 351 358 350 348 346 348 347 349 349 351 351 351 349 352 349 348 346 345 345 344 343 339 338 342 349 351 353 353 352 351 351 351 347 346 345 342 339
349 350 363 362 360 359 359 358 355 356 357 356 354 357 352 351 349 347 347 349 350 350 352 352 351 349 351 350 349 348 346 346 343 340 341 341 344 349 352 352 351 351 351 351 347 345 343 341 342
352 350 360 362 361 359 356 358 355 357 356 356 354 352 355 352 349 347 347 348 350 350 352 352 349 348 351 352 353 352 350 350 343 341 338 340 341 346 347 350 352 352 352 351 346 345 344 343 342
353 355 358 360 362 363 360 356 358 356 356 356 353 360 356 352 348 347 347 347 350 351 351 350 351 351 351 354 353 353 351 352 346 344 342 338 339 343 343 347 350 351 350 350 350 346 345 345 344
349 352 355 356 359 358 358 357 355 355 357 352 352 359 359 353 348 347 346 344 345 349 351 350 351 350 352 350 354 353 353 347 346 344 343 338 337 339 338 345 346 350 351 351 350 348 346 346 344
341 351 356 355 356 354 359 359 355 354 355 353 354 353 352 350 347 346 347 347 346 348 350 350 349 351 351 354 351 353 353 350 347 343 344 342 339 334 333 343 340 347 349 349 350 351 349 347 344
345 350 351 348 352 354 359 357 359 358 358 359 354 352 352 349 348 347 347 347 346 349 350 350 350 350 351 350 352 352 351 347 348 345 343 343 340 336 336 337 343 348 348 347 348 349 348 346 348
344 346 344 346 348 351 358 355 357 359 358 355 358 355 353 350 348 347 346 346 346 349 351 350 352 352 352 352 352 350 352 349 345 343 344 346 345 340 342 345 343 343 346 346 343 349 349 349 349
343 341 343 343 350 354 357 356 356 357 352 352 354 353 353 353 352 349 347 347 347 349 350 351 353 353 353 354 353 352 352 351 348 346 344 344 345 344 344 341 343 344 344 345 344 348 349 349 350
338 335 341 343 348 351 353 356 355 356 353 352 352 352 353 353 351 350 348 348 349 350 351 351 353 354 353 352 353 352 352 352 348 348 348 344 346 347 346 344 345 345 345 343 344 348 347 348 347
332 333 333 338 344 344 348 351 354 352 352 354 353 353 353 353 352 352 351 351 350 350 350 350 351 353 353 352 352 351 352 352 352 351 349 344 348 348 347 348 345 345 340 344 347 348 348 348 348
331 334 334 336 340 343 345 347 350 351 352 355 355 354 353 353 352 352 352 352 351 351 351 350 351 352 352 352 351 352 351 351 350 350 347 345 346 344 348 346 345 347 344 344 344 345 348 349 349
332 334 336 336 338 339 342 343 343 346 354 356 355 354 354 354 352 352 352 352 352 352 351 351 350 350 351 351 351 352 350 350 345 344 345 346 346 345 346 345 347 346 346 348 349 349 349 348 348
331 332 333 333 334 338 341 341 338 341 353 355 355 355 354 354 353 352 352 352 352 352 352 350 350 350 351 352 350 349 346 346 344 346 346 346 347 347 347 346 348 344 347 349 349 348 348 348 347
331 331 331 332 331 335 339 341 340 345 352 355 354 352 353 354 354 352 352 352 352 352 352 351 348 349 351 351 349 347 347 348 347 345 343 347 348 347 345 347 345 345 347 348 348 348 348 347 347
328 329 331 330 329 330 336 338 337 337 348 350 354 353 350 350 350 351 352 352 351 352 352 353 352 350 352 350 349 350 350 350 348 345 342 345 347 348 347 345 346 346 349 348 346 351 349 348 346
327 329 331 329 327 331 332 333 334 331 338 345 351 353 352 350 347 346 351 352 343 344 352 353 354 354 352 352 352 351 351 350 347 346 347 346 347 347 348 345 347 349 349 346 349 351 347 345 349
327 329 329 327 327 328 330 332 334 332 333 334 343 350 351 352 349 346 350 352 350 348 352 352 354 354 353 352 351 350 349 348 349 349 348 348 348 347 347 347 346 347 347 350 346 350 351 349 346
328 324 325 325 329 331 328 335 336 337 336 338 337 340 348 351 351 348 348 351 352 352 344 350 354 353 354 353 352 352 352 351 351 349 349 347 347 347 348 347 347 347 347 350 350 349 351 351 350
328 326 327 328 329 330 331 332 336 345 346 347 340 344 341 341 346 350 350 350 351 352 349 351 352 352 353 354 353 353 353 352 352 350 350 350 348 347 347 348 348 347 348 348 349 348 351 351 347
324 326 328 329 331 334 330 332 338 350 349 350 349 350 348 341 343 347 348 350 351 352 352 352 352 353 353 353 353 353 353 353 351 350 351 350 350 349 347 347 346 349 348 347 345 347 351 351 349
326 329 333 334 335 335 328 335 338 347 349 351 352 351 346 344 347 349 350 351 351 352 352 352 351 351 351 352 353 353 353 353 351 352 351 350 349 349 349 347 346 346 346 347 347 349 351 347 348
328 331 334 336 335 334 331 338 340 348 348 351 350 348 348 348 350 350 351 351 351 351 352 351 350 350 351 351 353 353 353 353 352 351 351 351 350 349 349 349 346 345 343 345 345 349 347 346 349
328 333 326 330 328 333 333 340 344 348 349 352 352 351 351 350 350 350 351 351 348 352 352 352 351 349 343 345 343 348 350 353 353 351 350 351 350 349 349 347 345 346 346 346 344 345 347 349 351
330 326 332 332 338 337 335 338 336 352 351 354 354 353 352 351 350 350 350 348 348 349 352 352 349 346 342 340 340 348 351 353 353 354 351 351 349 348 347 346 345 347 346 347 348 350 349 348 346
330 330 328 330 333 336 335 335 339 346 351 351 350 352 353 351 348 345 344 343 343 349 352 352 352 351 351 351 349 348 350 350 350 352 352 352 350 349 347 345 344 347 346 344 348 351 349 349 351
326 329 329 334 335 332 334 333 337 349 347 344 349 351 353 351 348 344 342 342 343 342 342 342 346 353 354 353 354 353 353 352 349 346 347 351 350 348 347 346 347 344 343 350 351 352 348 350 351
Wind_Speed
1 3 2 2 2 3 3 4 2 5 4 3 9 2 1 6 2 3 12 11 23 24 22 20 22 20 22 23 22 25 25 24 24 21 19 18 19 19 18 16 16 17 17 17 15 15 15 15 14
1 3 2 1 3 3 2 4 2 2 6 11 9 5 3 4 4 10 17 22 23 25 22 20 23 21 21 23 22 23 23 22 22 20 17 15 16 17 16 15 15 15 16 15 15 13 13 12 12
1 3 1 3 3 2 3 2 6 9 4 3 4 7 3 3 6 21 12 27 24 22 23 21 22 21 21 23 25 25 23 22 20 17 13 12 13 14 14 14 14 14 14 14 13 12 11 10 10
1 2 3 4 5 2 1 2 4 4 4 6 6 6 5 4 15 8 26 25 24 22 21 23 23 20 20 21 22 21 21 24 23 17 14 11 11 13 13 12 13 13 13 12 11 10 9 7 7
3 2 4 3 3 2 2 2 2 3 4 3 2 4 6 3 6 19 26 24 24 22 20 22 22 21 20 19 20 20 20 23 26 20 14 14 11 10 11 11 11 10 10 10 9 7 6 4 4
2 1 3 3 2 1 2 1 4 1 2 1 5 8 5 5 16 23 23 23 22 24 20 19 21 22 21 19 19 19 20 20 22 23 22 18 13 9 7 9 9 8 8 6 5 4 4 3 2
3 2 2 3 1 2 1 5 3 3 2 1 7 5 4 7 17 24 22 20 21 21 20 20 19 19 19 19 18 18 18 19 20 20 20 22 17 9 11 7 7 6 6 5 4 2 2 2 2
2 2 2 2 1 1 2 5 5 3 4 4 1 3 6 13 21 21 20 19 19 20 19 21 20 19 18 17 17 18 18 17 17 18 20 22 24 15 16 4 6 5 4 3 2 2 2 2 2
1 2 1 0 2 2 7 4 3 3 4 2 2 3 7 26 23 22 19 18 18 18 19 19 20 19 18 17 18 17 16 16 16 16 20 19 20 26 27 8 8 6 5 3 2 3 4 3 2
1 0 3 2 2 3 6 4 7 5 5 4 5 9 22 26 25 24 23 22 22 20 19 19 20 20 18 17 17 17 18 18 19 17 17 18 15 19 22 17 12 9 6 4 4 4 6 4 3
0 2 3 2 4 4 4 3 4 3 3 8 9 15 21 25 23 23 23 24 25 22 20 20 19 18 19 17 16 18 15 17 19 18 16 16 14 15 16 15 13 12 10 8 7 5 4 4 4
3 2 4 1 4 5 4 5 4 7 1 2 12 20 21 21 20 24 23 24 23 22 21 20 20 19 18 16 18 16 17 15 16 16 16 17 16 15 18 18 14 12 11 10 7 5 4 4 5
2 6 2 1 5 3 6 8 5 9 5 9 16 19 20 20 22 22 21 20 21 21 20 19 19 19 19 18 17 17 18 15 15 14 14 14 16 12 11 14 14 14 12 11 8 7 6 5 6
5 7 11 3 6 5 6 2 4 1 10 13 16 18 19 20 23 20 20 20 21 19 20 19 20 19 19 19 18 17 15 15 13 13 13 14 12 11 10 8 10 9 11 9 8 7 7 6 5
5 5 6 4 2 4 3 6 10 5 12 14 15 14 16 18 21 24 25 23 22 20 19 20 20 20 20 20 19 17 17 16 15 14 14 14 14 14 10 9 10 8 10 9 8 8 8 8 7
4 2 4 4 1 1 6 14 5 8 13 14 16 15 15 18 24 25 22 22 20 18 19 19 20 21 22 20 18 17 16 16 13 13 14 15 14 14 12 11 9 8 8 8 8 8 8 7 7
6 2 4 7 3 1 7 12 1 4 11 14 16 16 16 15 19 21 21 19 15 14 15 17 20 21 20 19 18 18 20 15 13 13 16 15 12 13 14 12 10 10 8 8 8 9 9 8 8
7 4 5 5 3 1 8 16 13 5 12 16 17 16 17 17 21 20 19 19 14 16 18 19 24 21 19 17 16 17 20 16 15 13 20 15 13 14 15 13 13 10 11 9 9 10 8 7 6
5 4 6 4 4 3 7 13 17 8 13 14 14 16 17 20 16 16 16 10 5 18 20 21 22 24 19 18 15 15 17 16 18 19 21 19 17 15 15 17 14 12 11 10 9 7 9 8 7
2 3 5 9 2 2 8 12 11 3 9 12 13 16 19 16 15 16 18 22 29 27 22 24 23 21 22 19 16 13 15 16 19 20 22 19 16 16 15 17 16 14 11 13 10 10 8 8 7
3 3 4 5 6 2 9 5 7 4 4 4 9 13 17 17 16 15 23 30 29 23 18 20 23 22 22 22 17 14 12 16 11 16 16 17 17 17 18 18 17 19 14 12 11 10 9 7 8
3 4 7 7 4 4 5 3 3 8 5 10 10 8 12 15 15 15 22 29 32 30 26 23 23 19 19 20 18 17 16 15 15 14 14 15 16 17 18 18 19 19 17 12 11 9 10 9 8
2 2 1 2 3 3 4 4 3 7 8 16 13 10 7 12 14 15 20 30 30 31 31 12 13 13 15 17 19 17 17 15 12 10 11 13 15 18 20 19 19 19 16 15 14 11 11 12 12
2 2 2 2 1 1 4 4 3 6 7 14 14 13 12 7 5 10 17 19 22 20 19 19 15 14 14 16 17 17 18 16 13 13 11 12 14 16 20 18 21 18 16 15 14 13 12 13 12
4 2 1 2 1 3 2 3 3 8 8 10 14 13 10 4 8 12 15 20 23 26 22 19 19 21 24 20 19 19 19 17 18 16 14 13 13 15 18 22 24 24 21 16 15 14 15 15 15
2 1 1 3 4 4 1 2 2 6 9 8 6 4 3 5 8 11 12 14 13 15 19 27 28 22 20 19 18 18 19 19 19 19 17 17 15 15 14 18 24 26 22 17 16 15 17 16 12
5 2 2 4 1 3 1 3 7 4 5 6 6 4 1 5 7 9 8 12 8 12 16 14 13 19 17 24 23 20 20 20 20 23 20 18 19 17 17 19 23 23 22 18 17 19 17 13 12
2 8 2 0 3 7 3 4 6 4 2 3 4 3 4 6 5 6 9 13 12 6 9 11 11 20 18 15 17 16 20 18 15 17 20 17 18 19 16 14 16 18 19 16 17 15 15 12 14
3 3 4 2 2 4 6 3 4 5 3 6 6 6 8 5 8 7 10 15 13 10 8 9 12 17 21 24 24 21 19 12 16 19 18 18 16 17 17 14 14 17 18 19 18 15 13 12 11
2 2 2 3 2 1 2 4 6 1 4 8 7 6 8 7 6 7 9 10 10 8 4 4 3 11 18 19 19 20 17 15 22 10 28 20 16 15 15 16 15 19 19 17 17 16 15 12 14
Wind_Direction
75 168 143 125 70 69 53 46 337 115 142 112 142 173 167 56 22 62 139 148 143 144 145 142 140 141 154 156 150 155 148 147 149 153 147 142 142 137 132 127 119 116 110 106 104 101 101 99 101
85 154 121 90 69 64 27 359 21 31 94 117 110 116 64 77 69 119 138 148 145 145 147 146 145 141 147 158 158 155 153 145 145 150 156 150 149 143 137 134 125 120 114 111 106 105 103 106 111
294 219 285 65 77 87 95 58 94 97 123 136 110 59 49 42 88 142 145 149 147 146 149 150 148 150 146 153 158 158 157 151 147 146 154 161 151 143 142 137 132 124 119 116 114 109 105 107 114
278 178 74 58 63 114 143 135 108 63 53 60 95 65 80 348 141 155 148 150 147 148 150 152 148 152 155 155 159 157 153 151 153 154 173 177 174 153 147 142 135 129 126 122 120 117 114 117 124
27 57 55 58 25 300 245 265 143 27 19 33 72 97 95 63 147 143 151 151 147 150 150 154 151 153 157 163 162 161 159 156 159 159 171 181 192 171 158 152 142 137 132 129 126 126 131 138 151
68 20 82 76 360 353 279 160 156 23 13 136 100 112 116 131 143 152 156 155 153 152 153 158 160 158 158 159 166 170 168 164 169 175 180 183 181 185 186 163 153 152 141 137 135 136 143 150 170
69 55 65 99 88 319 127 131 159 166 150 103 128 107 110 155 154 154 158 158 157 158 157 158 163 163 166 166 168 167 172 167 170 175 184 182 186 194 191 198 169 164 150 143 140 157 182 196 209
75 16 51 80 218 297 140 121 141 161 186 137 162 139 161 167 158 155 158 160 165 167 164 165 166 168 169 175 175 174 174 173 172 177 181 187 197 216 202 227 203 187 172 165 170 249 259 260 252
92 59 26 134 194 314 138 139 163 132 146 142 80 98 130 150 154 155 159 166 173 176 176 173 175 177 177 177 184 184 182 179 182 193 187 187 198 209 210 218 224 209 203 204 213 265 293 260 268
17 335 201 207 205 270 155 169 185 189 173 175 155 103 138 150 160 165 173 176 182 183 184 183 182 183 184 186 191 193 193 192 192 196 191 190 202 212 224 226 233 227 230 249 270 253 267 261 221
98 310 305 202 212 245 147 161 202 209 219 202 190 150 156 161 171 177 184 186 186 186 187 190 189 190 190 193 195 202 205 202 205 207 204 196 202 207 203 217 225 233 236 243 271 282 243 241 234
282 229 219 348 183 154 182 153 222 226 31 327 161 160 163 172 180 185 188 189 189 193 194 192 193 193 196 200 200 203 206 211 208 206 208 207 209 213 218 222 225 235 234 236 259 259 236 230 237
314 338 285 238 169 192 161 207 223 243 231 121 146 160 173 181 187 191 194 193 193 198 197 197 196 198 199 203 207 210 216 217 214 202 206 209 211 209 217 223 228 232 234 232 253 242 234 232 236
326 308 295 263 188 213 222 233 187 57 144 138 161 175 179 187 191 190 194 198 197 199 200 197 200 202 203 206 208 212 213 218 214 210 205 212 208 210 209 214 213 207 209 230 235 233 231 229 237
313 319 324 274 217 218 205 256 234 223 163 161 178 187 189 197 195 201 200 203 199 202 199 199 200 204 207 210 214 214 219 220 224 219 211 210 213 218 215 217 217 216 219 231 230 230 234 236 242
26 48 341 359 29 350 199 273 275 209 172 183 184 187 200 205 206 209 208 207 207 204 204 201 204 208 208 210 213 219 224 222 227 236 236 216 216 220 225 227 221 210 210 219 231 232 238 246 257
23 346 5 329 1 62 216 274 271 196 205 197 193 194 200 214 217 215 215 213 208 217 214 208 209 212 211 214 219 225 236 235 231 226 240 236 213 222 224 228 228 228 220 222 229 240 235 243 255
317 345 323 293 320 244 247 260 261 204 212 217 201 201 203 211 220 208 192 210 208 214 217 214 219 216 210 215 218 231 238 240 226 226 240 244 232 225 225 227 231 241 237 228 228 229 231 238 248
291 289 305 266 279 281 277 259 272 237 224 231 212 211 213 215 216 205 194 153 206 229 219 212 211 218 204 208 209 220 225 227 210 225 235 240 232 228 228 228 240 239 231 233 238 232 242 239 243
241 285 284 291 293 230 283 282 299 264 260 249 223 218 223 219 216 190 182 170 185 217 219 218 215 213 208 212 212 213 213 228 221 230 237 240 232 226 227 225 228 229 228 234 236 227 231 232 216
198 237 261 281 314 222 310 300 8 339 315 314 234 225 228 227 215 186 183 187 194 215 244 228 220 212 210 218 215 220 221 225 225 228 238 228 233 233 228 231 233 239 230 236 245 223 226 238 233
302 218 265 285 281 320 347 323 9 344 340 41 21 239 240 234 221 195 186 198 197 196 206 214 216 210 213 214 212 210 221 227 229 230 234 228 233 238 226 232 232 238 233 231 239 242 233 235 232
282 334 337 311 283 276 33 286 69 349 345 355 348 350 291 247 225 194 196 199 200 200 212 201 231 221 214 217 221 218 224 233 248 244 245 232 234 235 228 230 230 232 231 233 234 237 235 238 232
114 205 78 103 327 196 0 329 43 6 323 321 329 334 335 297 225 184 192 195 200 201 206 205 215 222 214 219 224 234 235 224 232 245 249 239 230 229 231 231 229 223 227 230 233 235 235 226 229
198 248 332 176 32 16 329 256 345 324 330 313 314 328 352 74 155 158 171 183 188 188 181 175 200 216 216 210 213 222 235 240 236 235 241 246 244 237 235 233 234 229 228 234 236 231 232 227 228
112 336 48 354 336 342 183 282 34 316 323 330 331 345 60 138 161 167 177 189 150 187 187 191 184 205 216 211 217 217 227 233 237 236 236 241 243 247 241 235 238 237 232 235 234 230 234 228 231
148 135 29 118 118 259 350 257 260 274 326 3 10 5 219 185 175 179 146 112 79 174 202 223 204 201 223 227 216 222 229 230 233 238 241 238 243 247 250 246 243 232 227 230 233 235 228 223 226
356 133 186 50 276 293 245 260 275 216 242 30 34 339 264 229 103 84 79 73 75 98 193 211 214 210 223 241 241 231 230 229 244 248 243 239 245 254 249 250 235 219 220 226 222 221 229 220 229
154 151 71 109 322 296 293 288 341 272 304 333 347 329 301 323 44 54 59 57 52 59 85 184 216 234 248 256 257 257 245 240 271 253 249 251 244 252 251 216 220 213 217 222 216 218 219 217 220
324 104 216 268 238 143 292 262 343 308 329 321 318 332 329 330 23 53 45 45 47 48 71 99 192 243 248 253 258 256 255 197 221 300 282 252 233 234 229 206 212 215 219 212 212 216 217 214 212